Powrót do katalogu

THORAD DELTA 1 DEB

AktywnyLEO
NORAD 8305·DEBRIS·🇺🇸 United States

Wystrzelony Nov 15, 1974 z Vandenberg Space Force Base

Loading…

Następne Przeloty (najbliższe 24 godziny)

TLE

ŚwieżeSource: Space-Track

Epoka: Sep 14, 2026, 12:24 UTC

1 08305U 74089BN  26257.51672588 -.00000023  00000-0  13263-3 0  9992
2 08305 101.4253  95.2252 0093624  79.3563 308.9542 12.35213128336119

Śledź THORAD DELTA 1 DEB w czasie rzeczywistym z AllMySat

Download on the App Store